User: anonymous   Login
Location: Bamobli
(6.6379°N, 10.9396°W)
Time: 17:37:37
(UTC+00:00)
Language:

Cosmos 2237 Rocket - Orbit

View from above orbital plane
View from above orbital plane
View from above satellite
View from above satellite

Ground track
Ground track

The orbit data is extracted from the following two-line orbital elements,

1 22566U 93016B   21136.72044425  .00000290  00000-0  17458-3 0  9990
2 22566  71.0071 306.1857 0008698 125.5491 234.6444 14.14972471453477
Epoch (UTC): 16 May 2021 17:17:26
Eccentricity: 0.0008698
inclination: 71.0071°
perigee height: 836 km
apogee height: 848 km
right ascension of ascending node: 306.1857°
argument of perigee: 125.5491°
revolutions per day: 14.14972471
mean anomaly at epoch: 234.6444°
orbit number at epoch: 45347

The dashed part of the orbit path shows where the satellite is in the earth's shadow,  

DLR